THOR ABLESTAR DEB, 48827

Orbit data source: Space-Track

THOR ABLESTAR DEB, 48827 is space debris in LEO originally from a launch on Thu, 29 Jun 1961 UTC launched from the Air Force Eastern Test Range (AFETR). Debris objects in space refer to the collection of defunct objects orbiting the Earth. Examples of debris include non-operational satellites, rocket bodies, and fragments generated from explosions, collisions, or faulty payload assembly.

Loading next visibility...
Identifier
48827, 1961-015NF
Orbit
LEO
Country
Flag of USUS
Related business
Manufacturer
Unknown
Mission
Spacecraft
Bus & Motor
Unknown
Mass
Unknown
Launch date (UTC)
1961-06-29 (64 years ago)
Launch vehicle
Unknown
Launch site
Air Force Eastern Test Range (AFETR)
Object type
Payload
Rocket body
Debris
Shape & HBR
Unknown shape, 0.1 m
Radar Cross Section
Small (<0.1 m²)

Expand to show TLE details & history
Last TLE update: 4 days ago

TLE from 4 days ago
0 THOR ABLESTAR DEB
1 48827U 61015NF  25298.38971770  .00000700  00000-0  11474-2 0  9996
2 48827  68.1611 335.6416 0343526 338.0798  20.5856 13.31156087578600
Epoch: 2025-10-25T09:21Z
TLE epoch observation values (Epoch: 2025-10-25T09:21:11.609Z)
Latitude
0.00006°
Longitude
161.32229°
Altitude
903.798 km
Speed
7.518 km/s
True Right ascension
22h 22m 33s
True Declination
0° 00' 00"
Sunlit
Object was in full shadow at epoch
Visualization orbit readout
Latitude
Unknown
Longitude
Unknown
Altitude
Unknown
Speed
Unknown
Apparent Right ascension
Unknown
Apparent Declination
Unknown
Sunlit
N/A
Visualization observer readout
Local Sidereal Time
17:12:29
Azimuth
Unknown
Elevation
Unknown
Doppler factor
Unknown
Orbital elements
Apogee altitude
1,398.987 km
Perigee altitude
882.404 km
Semi-major axis
7,518.832 km
Eccentricity
0.03435
Inclination
68.1611°
RAAN
335.6416°
Arg. of periapsis
338.0798°
True anomaly
22.02742°
Mean anomaly
20.5856°
Eccentric anomaly
21.30059°
Mean motion
3.32903 °/min
Orbital period
108.14 mins
BSTAR
0.0011474
Loading maneuver chart data...
Computing Atmospheric mass density...

Documentation

Showing up to 5 results
|